Погода в Уитби

Великобритания     54°28′49″N   0°37′30″E
темп.,
°C
ветер,
м/с
пор.,
м/с
влажн.,
%
обл.,
%
осадки,
мм/ч
давл.,
гПа
погр.,
м
9 марта, вт
вт900:00+4з489289 0.7 1019197
03:00+4з359069 0.0 101886
06:00+4зюз228976 0.0 101830
09:00+6ююз228898 0.0 101856
12:00+8ююз467890 0.1 1018482
15:00+8ююз5882100 0.1 1016367
18:00+6ю5987100 0.1 1014225
21:00+6ю71588100 0.0 1013500
10 марта, ср
ср1000:00+6ююз91774100 0.0 1010656
03:00+5ю122086100 1.4 1005752
06:00+6ююз111988100 2.4 1004697
09:00+7ююз91589100 0.1 1003522
12:00+8юз61083100 0.1 1002540
15:00+8ююз61079100 0.0 999560
18:00+9ю91891100 0.5 993569
21:00+11ююз112088100 2.7 988870
11 марта, чт
чт1100:00+10юз102178100 3.1 9851282
03:00+7ююз10238156 0.6 9831569
06:00+6юз11238365 0.8 9791408
09:00+7з122177100 0.7 9811447
12:00+7зюз13196974 0.8 9861548
15:00+6зюз13197285 0.4 9881474
18:00+5зюз11187278 0.9 9921297
21:00+4зюз12217348 0.0 9951347
12 марта, пт
пт1200:00+4зюз13218228 0.0 9961501
03:00+4зюз12197957 0.0 9961196
06:00+4зюз10168232 0.0 9971108
09:00+6зюз914737 0.0 9971141
12:00+7зюз9146721 0.3 9971160
15:00+7зюз10156579 0.2 9961217
18:00+5зюз8157374 0.2 9961031
21:00+4юз71579100 0.0 9951004
13 марта, сб
сб1300:00+4ююз9159297 0.8 9901007
03:00+5юз91689100 0.6 9861114
06:00+4юз9158675 0.6 985874
09:00+5зюз9147762 0.1 9851176
12:00+7з8116842 0.2 9861028
15:00+6зсз81167100 0.6 9871021
18:00+5з8147183 0.8 990913
21:00+4з916700 0.0 9941044